SCP
0 0 0 0 0 0 0 0 0 0 0 0 0 0 0 0 0 0 0 0 0 0 0 0 0 0 0 0 0 0 0 0 0 -0 -0 0 -0 0 0 0 0 0 -0 0
0 0 0 0 0 0 0 -0 -0 0 0 0 0 0 0 0 0 0 0 0 0 0 0 0 0 0 0 0 0 0 0 0 -0 -0 -0 -0 0 -0 0 0 0 0 0 0
0 0 0 0 0 0 0 -0 0 0 -0 0 0 0 0 0 0 0 0 0 0 0 0 0 0 0 0 0 -0 -0 0 0 -0 -0 -0 -0 -0 0 -0 -0 0 0 0 0
0 0 0 0 0 0 0 0 0 0 0 0 0 0 0 0 0 0 0 0 0 0 0 0 0 0 -0 0 0 0 0 0 0 -0 0 -0 -0 -0 -0 -0 0 0 0 0
0 0 0 0 0 0 0 0 0 0 0 0 0 0 0 0 0 0 0 0 0 0 0 0 0 0 0 0 0 0 0 0 0 0 0 0 0 -0 0 -0 -0 -0 0 0
0 0 0 0 0 0 0 0 0 0 0 0 0 0 0 0 0 0 0 0 0 0 0 0 0 0 0 0 0 0 0 0 0 0 0 -0 0 -0 -0 -0 0 -0 0 0
0 0 0 0 0 0 0 0 0 0 0 0 0 0 0 0 0 0 0 0 0 0 0 0 0 0 0 0 0 0 0 0 0 0 0 0 0 0 -0 -0 -0 0 0 0
0 0 0 0 0 0 0 0 0 0 0 0 0 0 0 0 0 0 0 0 0 0 0 0 0 0 0 0 -0 -0 0 0 0 0 0 0 0 0 -0 0 0 -0 0 0
0 0 0 0 0 0 0 0 0 0 0 0 0 0 0 0 0 0 0 -0 0 0 0 0 0 0 0 0 -0 0 -0 0 0 0 0 0 -0 -0 -0 -0 -0 0 0 0
0 0 0 0 0 0 0 0 0 0 0 0 0 0 0 0 0 0 0 -0 0 0 0 0 0 0 0 0 -0 -0 -0 -0 0 0 0 0 -0 -0 -0 0 0 0 0 0
0 0 0 0 0 0 0 0 0 0 0 0 0 0 0 0 0 0 0 0 0 0 0 0 0 0 0 0 0 -0 0 -0 0 0 0 0 0 -0 0 0 0 0 0 0
0 0 0 0 0 0 0 0 0 0 0 0 0 0 -0 0 0 0 0 0 0 0 0 0 0 0 0 -0 0 0 0 0 0 0 0 0 -0 -0 0 0 0 0 0 0
0 0 0 0 0 0 0 0 0 0 0 0 0 0 0 0 0 0 0 0 0 0 0 0 0 0 0 0 0 0 0 0 0 0 0 0 0 -0 -0 0 0 0 0 0
0 0 0 0 0 0 0 0 0 0 0 0 0 0 0 0 0 0 0 -0 -0 0 0 0 0 0 0 0 0 0 0 -0 0 -0 0 -0 0 0 -0 0 0 0 0 0
0 0 0 0 0 0 0 0 0 0 0 0 0 0 0 0 0 0 0 0 0 0 0 0 0 0 0 0 0 0 0 0 0 0 -0 0 0 0 -0 -0 0 0 0 0
0 0 0 0 0 0 0 0 0 0 0 0 0 0 0 0 0 0 0 0 0 0 0 0 0 0 0 0 0 0 0 0 -0 0 0 -0 -0 -0 -0 -0 0 0 0 0
0 0 0 0 0 0 0 0 0 0 0 0 0 0 0 0 0 0 0 0 0 0 0 0 0 0 0 0 0 0 0 -0 -0 -0 0 0 0 -0 -0 -0 0 0 0 0
0 0 0 0 0 0 0 0 0 0 0 0 0 0 0 0 0 0 0 0 0 0 0 0 0 0 0 0 0 0 0 -0 0 0 0 0 0 0 -0 0 -0 -0 0 0
0 0 0 0 0 0 0 0 0 0 0 0 0 0 0 0 0 0 0 0 0 0 0 0 0 0 0 0 0 0 0 0 -0 0 0 0 0 -0 -0 0 -0 -0 -0 0
0 0 0 0 0 0 0 0 0 0 0 0 0 0 0 0 0 0 -0 0 0 0 0 0 0 0 0 0 0 0 0 0 0 0 -0 -0 0 0 -0 -0 -0 -0 -0 -0
0 0 0 0 0 0 0 0 0 0 0 0 0 0 0 0 0 0 0 0 0 0 0 0 0 0 0 0 0 0 0 0 0 0 0 0 0 0 0 0 -0 -0 -0 -0
0 0 0 0 0 0 0 0 0 0 0 0 0 0 0 0 0 0 0 0 0 0 0 0 0 0 0 0 0 0 0 0 0 0 0 0 0 0 0 0 0 0 0 0
0 0 0 0 0 0 0 0 0 0 0 -0 0 0 0 0 0 0 0 0 0 0 0 0 0 0 0 0 0 0 0 0 -0 0 0 0 0 0 0 0 0 0 0 0
0 0 0 0 0 0 0 0 -0 0 0 0 0 0 0 0 0 0 0 0 0 0 0 0 0 0 0 0 0 0 0 0 0 0 -0 -0 0 0 0 0 0 0 0 0
0 0 0 0 0 0 0 0 -0 -0 0 0 0 0 0 0 0 0 0 0 0 0 0 0 0 0 0 0 0 0 -0 -0 -0 0 0 0 -0 -0 0 0 0 0 0 0
0 0 0 0 0 0 0 0 0 0 0 0 0 0 0 0 0 0 0 0 0 0 0 0 0 0 0 0 0 -0 -0 0 -0 -0 0 0 0 -0 -0 -0 0 0 0 0
0 0 0 0 0 0 0 0 0 0 0 0 0 0 0 0 0 0 0 0 0 0 0 0 0 0 0 0 0 0 0 0 0 0 0 -0 -0 0 0 -0 -0 -0 0 0
Wind_Speed_500mb
65 66 68 72 81 87 73 28 13 20 36 14 21 18 33 35 23 29 28 25 26 33 39 39 27 15 13 24 19 12 11 10 19 29 35 27 31 31 28 19 31 26 21 27
64 64 66 67 69 73 69 28 41 24 29 17 17 31 30 24 28 26 30 23 30 38 33 17 17 19 15 21 8 9 7 12 16 20 21 22 30 29 30 28 25 40 30 26
62 62 62 61 60 55 49 20 13 39 42 37 30 32 29 35 32 27 32 34 31 33 36 36 23 38 5 18 30 31 14 13 24 21 12 10 16 31 30 33 26 36 43 44
62 60 60 57 57 45 35 21 18 25 16 30 36 42 32 39 39 37 43 34 31 36 38 38 17 35 11 16 16 14 9 12 30 41 42 37 28 41 45 37 42 41 56 45
63 59 57 59 55 47 23 21 24 28 55 40 43 31 31 39 39 39 33 28 38 39 39 31 48 38 6 10 14 18 9 9 17 39 41 41 45 33 54 47 58 57 62 52
60 58 54 57 56 46 16 26 32 25 26 33 28 27 39 46 48 30 48 37 36 37 38 55 51 58 33 21 16 20 10 9 10 22 26 34 23 50 55 56 57 60 54 48
53 53 50 51 52 47 31 24 27 28 22 24 29 43 46 42 44 42 54 42 28 36 55 58 53 48 26 26 32 33 22 30 8 6 5 13 9 9 32 58 49 53 52 43
51 52 52 49 48 48 42 23 24 22 20 36 36 42 40 52 55 39 47 44 41 44 52 32 20 20 4 14 36 35 33 19 6 7 7 15 14 29 22 21 44 52 46 38
55 54 55 51 50 46 43 24 19 23 24 10 43 42 43 30 27 29 43 45 43 39 25 15 12 10 15 15 20 7 30 14 4 5 7 7 8 42 43 17 17 20 21 31
56 54 53 52 51 51 39 23 30 16 32 36 32 27 24 26 30 22 42 55 49 37 20 16 12 15 19 13 21 29 24 17 15 20 6 4 30 53 56 18 11 55 40 32
56 51 50 54 52 54 43 25 22 23 35 66 32 28 46 49 43 25 38 30 17 20 17 13 15 9 10 12 27 10 13 12 8 9 8 8 56 30 18 25 58 56 46 34
53 52 52 52 54 52 36 39 10 31 37 57 77 68 42 42 42 46 25 34 39 12 10 12 11 22 8 24 9 19 8 8 7 5 6 22 50 40 42 49 54 59 41 34
51 50 51 49 49 46 40 33 23 37 37 64 25 36 30 18 23 26 26 25 8 6 14 11 9 7 7 9 12 10 21 8 8 17 11 31 19 59 70 76 53 32 17 32
46 45 46 49 48 43 34 32 27 38 20 12 22 20 32 34 35 35 35 44 39 29 24 11 8 12 12 7 11 13 8 19 14 14 13 36 10 58 62 63 61 38 10 10
42 41 42 41 38 29 30 33 35 42 25 14 43 64 15 11 26 51 42 31 26 25 21 10 11 22 10 6 2 6 2 4 4 7 30 21 39 57 55 64 56 37 13 22
42 41 35 30 27 21 21 12 12 42 45 12 10 31 43 30 19 23 29 30 31 23 14 13 17 13 5 6 6 3 2 9 16 14 34 43 33 40 49 52 48 30 22 31
42 34 31 24 21 22 29 11 5 7 21 9 16 15 15 12 21 26 33 34 27 25 22 15 34 24 11 5 8 4 7 14 19 22 22 21 28 32 43 39 39 22 14 20
41 33 28 22 23 27 39 38 35 26 17 13 9 12 22 31 22 28 29 15 19 16 22 24 20 21 15 8 20 6 11 16 8 19 11 16 23 25 30 25 13 16 27 34
35 30 22 26 29 21 19 11 15 39 22 10 14 9 13 11 27 24 22 23 9 16 13 18 4 18 8 7 9 11 10 11 13 4 16 19 23 26 29 29 27 26 33 36
29 15 7 9 12 13 11 8 15 21 19 18 15 34 24 31 18 7 20 16 11 6 13 14 13 18 24 15 15 13 10 13 17 16 22 27 25 28 32 31 29 25 24 33
14 10 11 16 8 4 10 12 14 14 10 19 20 39 29 39 17 14 11 6 8 7 9 8 8 8 15 17 17 14 13 15 19 16 16 19 18 21 24 26 25 24 22 23
13 15 14 11 13 15 11 9 12 16 11 25 24 29 29 26 12 8 9 12 7 8 9 8 7 10 28 22 18 14 11 14 19 20 19 20 22 21 19 19 19 19 21 25
35 12 8 12 17 15 11 14 10 9 19 34 25 10 17 23 16 11 7 9 11 12 6 10 7 31 29 25 21 16 13 15 17 19 21 23 28 28 27 23 19 15 12 17
12 11 11 12 12 13 16 21 24 32 16 26 33 12 5 12 10 10 9 8 8 7 11 3 15 27 30 28 24 20 17 18 18 21 23 27 28 32 35 33 25 17 14 12
16 15 12 18 29 38 45 26 36 51 10 24 44 6 16 7 6 9 10 5 8 6 5 13 32 32 30 33 28 27 23 19 17 15 17 22 24 26 31 32 35 28 20 16
13 17 16 24 20 25 29 35 30 38 41 30 12 4 8 12 8 11 9 6 4 5 10 32 36 32 30 31 29 28 26 22 20 19 19 19 20 22 23 24 28 30 28 27
13 20 37 46 44 33 36 34 21 22 23 6 7 7 7 7 7 7 6 3 7 11 28 42 37 35 33 32 30 29 26 24 20 18 17 18 17 16 16 22 20 23 27 28
Wind_Direction_500mb
350 351 353 354 353 355 2 349 335 345 350 350 342 342 334 310 314 317 320 311 312 319 323 319 321 297 232 269 318 291 231 286 270 262 242 283 205 262 243 252 277 270 287 279
348 350 352 354 0 356 350 326 313 351 342 344 341 335 326 331 324 325 332 320 321 307 308 310 292 286 274 289 239 269 336 243 271 256 219 217 258 212 247 268 275 274 281 271
347 348 350 352 359 357 350 315 321 337 334 358 346 327 318 324 337 340 327 314 303 312 327 317 308 301 292 247 246 236 260 259 258 267 286 304 279 262 246 233 247 257 255 266
346 347 347 353 354 6 360 352 344 351 314 327 320 307 318 326 331 333 319 318 314 324 315 321 295 311 332 251 242 223 221 263 261 267 271 277 236 247 250 255 259 241 260 254
337 345 347 352 359 3 359 357 332 321 302 314 304 326 342 324 318 323 322 316 312 313 305 326 325 318 321 256 175 186 196 266 258 265 269 278 275 267 247 233 246 252 250 257
326 335 342 346 351 2 346 339 325 304 294 315 322 337 318 321 323 320 310 308 301 306 324 320 308 291 281 241 242 203 211 226 225 253 254 274 257 246 230 235 235 232 242 246
314 319 328 333 339 345 342 321 324 315 300 309 318 312 328 321 316 298 303 319 306 326 318 303 304 295 246 237 242 222 233 221 202 278 192 234 336 206 273 220 231 231 244 245
301 305 312 319 324 330 333 323 318 311 294 303 306 325 316 317 311 323 312 324 324 332 306 299 319 322 267 274 229 242 243 279 266 259 228 294 314 2 328 212 229 231 227 238
294 295 301 306 311 314 323 311 288 292 295 263 323 317 309 309 322 308 321 319 338 315 303 324 322 323 320 341 325 350 336 219 170 285 264 325 25 328 322 174 259 360 302 225
297 294 292 296 301 306 307 292 289 287 280 284 307 300 306 300 306 297 307 341 314 331 325 331 0 320 336 349 326 332 326 347 321 326 302 261 359 338 324 210 348 326 331 310
295 293 291 290 293 293 292 284 272 268 276 289 273 286 288 286 280 284 317 321 15 327 341 336 358 315 348 305 325 328 334 330 358 320 318 335 0 346 12 314 315 305 305 288
291 291 292 290 289 290 278 281 262 267 257 272 290 291 265 251 260 264 272 287 301 339 325 347 331 315 344 315 305 348 348 6 298 248 276 358 332 335 324 323 305 294 280 284
291 288 291 292 293 292 276 273 269 272 285 306 274 290 307 261 252 233 250 267 311 26 11 346 299 287 291 306 326 311 318 274 290 335 41 345 312 352 336 332 327 339 320 136
300 295 293 287 285 279 257 255 266 260 277 276 292 285 279 265 257 234 237 250 272 291 288 283 259 288 290 287 311 307 284 308 343 278 350 330 224 322 321 333 356 2 335 54
298 294 293 290 285 269 253 260 255 252 244 296 298 306 313 286 246 237 236 241 249 266 279 242 269 290 309 297 282 275 262 358 309 279 316 311 302 330 338 344 349 9 71 67
300 296 294 287 277 263 264 293 261 234 250 286 297 301 292 252 228 213 221 234 237 242 260 283 262 252 274 295 287 290 266 232 247 276 302 315 333 337 354 352 5 19 31 68
315 296 289 283 270 251 225 241 169 232 207 264 286 280 238 220 207 227 233 237 225 221 249 230 256 250 203 255 265 294 334 322 305 297 314 329 347 334 351 5 1 18 63 104
312 300 287 282 277 270 263 259 257 217 218 242 266 272 276 211 224 218 223 222 222 216 241 259 259 171 220 228 234 219 359 339 347 4 4 345 343 357 17 33 15 57 97 105
304 298 289 283 270 253 265 267 211 218 213 260 238 260 296 167 238 258 189 213 217 227 230 241 303 240 203 281 16 52 28 22 341 5 13 9 5 1 24 43 66 65 100 110
291 259 267 265 223 234 270 219 185 207 217 234 256 249 243 281 310 275 262 216 210 235 220 166 208 238 110 110 92 89 60 43 30 18 4 3 12 5 13 33 52 65 91 127
253 236 231 247 233 230 231 225 194 191 240 223 240 234 247 244 246 260 278 272 210 242 177 218 241 141 125 123 106 94 81 66 61 62 40 17 14 16 17 32 56 72 101 126
232 258 262 242 221 209 232 220 208 202 246 194 220 216 205 236 224 246 224 247 256 243 180 227 254 105 130 131 118 101 77 81 78 68 57 43 39 30 32 34 49 67 90 125
257 262 239 232 214 220 220 213 217 222 220 266 238 180 189 213 209 265 249 240 238 331 247 241 79 137 131 132 125 107 91 90 83 84 74 59 54 53 49 46 50 57 87 108
232 223 233 232 208 222 210 246 270 286 277 291 275 211 197 231 193 241 235 232 235 245 229 219 134 138 135 134 129 117 107 98 86 80 77 70 63 58 57 56 62 68 84 99
226 228 232 224 247 276 272 286 310 285 184 261 265 202 207 225 266 258 234 231 248 253 64 111 128 140 139 135 130 127 123 112 101 97 92 76 64 61 59 53 58 64 73 85
232 242 242 254 270 262 272 306 312 315 338 308 291 234 247 224 227 226 211 259 289 68 118 136 140 143 143 142 141 150 135 120 112 100 92 88 84 80 78 73 72 72 75 88
227 228 235 252 286 292 289 294 299 294 293 307 288 271 247 300 235 227 212 231 91 71 153 143 145 146 147 146 141 138 136 130 120 110 102 97 95 95 82 88 95 104 102 101
Wind_Speed_850mb
65 66 68 72 81 87 73 28 13 20 36 14 21 18 33 35 23 29 28 25 26 33 39 39 27 15 13 24 19 12 11 10 19 29 35 27 31 31 28 19 31 26 21 27
64 64 66 67 69 73 69 28 41 24 29 17 17 31 30 24 28 26 30 23 30 38 33 17 17 19 15 21 8 9 7 12 16 20 21 22 30 29 30 28 25 40 30 26
62 62 62 61 60 55 49 20 13 39 42 37 30 32 29 35 32 27 32 34 31 33 36 36 23 38 5 18 30 31 14 13 24 21 12 10 16 31 30 33 26 36 43 44
62 60 60 57 57 45 35 21 18 25 16 30 36 42 32 39 39 37 43 34 31 36 38 38 17 35 11 16 16 14 9 12 30 41 42 37 28 41 45 37 42 41 56 45
63 59 57 59 55 47 23 21 24 28 55 40 43 31 31 39 39 39 33 28 38 39 39 31 48 38 6 10 14 18 9 9 17 39 41 41 45 33 54 47 58 57 62 52
60 58 54 57 56 46 16 26 32 25 26 33 28 27 39 46 48 30 48 37 36 37 38 55 51 58 33 21 16 20 10 9 10 22 26 34 23 50 55 56 57 60 54 48
53 53 50 51 52 47 31 24 27 28 22 24 29 43 46 42 44 42 54 42 28 36 55 58 53 48 26 26 32 33 22 30 8 6 5 13 9 9 32 58 49 53 52 43
51 52 52 49 48 48 42 23 24 22 20 36 36 42 40 52 55 39 47 44 41 44 52 32 20 20 4 14 36 35 33 19 6 7 7 15 14 29 22 21 44 52 46 38
55 54 55 51 50 46 43 24 19 23 24 10 43 42 43 30 27 29 43 45 43 39 25 15 12 10 15 15 20 7 30 14 4 5 7 7 8 42 43 17 17 20 21 31
56 54 53 52 51 51 39 23 30 16 32 36 32 27 24 26 30 22 42 55 49 37 20 16 12 15 19 13 21 29 24 17 15 20 6 4 30 53 56 18 11 55 40 32
56 51 50 54 52 54 43 25 22 23 35 66 32 28 46 49 43 25 38 30 17 20 17 13 15 9 10 12 27 10 13 12 8 9 8 8 56 30 18 25 58 56 46 34
53 52 52 52 54 52 36 39 10 31 37 57 77 68 42 42 42 46 25 34 39 12 10 12 11 22 8 24 9 19 8 8 7 5 6 22 50 40 42 49 54 59 41 34
51 50 51 49 49 46 40 33 23 37 37 64 25 36 30 18 23 26 26 25 8 6 14 11 9 7 7 9 12 10 21 8 8 17 11 31 19 59 70 76 53 32 17 32
46 45 46 49 48 43 34 32 27 38 20 12 22 20 32 34 35 35 35 44 39 29 24 11 8 12 12 7 11 13 8 19 14 14 13 36 10 58 62 63 61 38 10 10
42 41 42 41 38 29 30 33 35 42 25 14 43 64 15 11 26 51 42 31 26 25 21 10 11 22 10 6 2 6 2 4 4 7 30 21 39 57 55 64 56 37 13 22
42 41 35 30 27 21 21 12 12 42 45 12 10 31 43 30 19 23 29 30 31 23 14 13 17 13 5 6 6 3 2 9 16 14 34 43 33 40 49 52 48 30 22 31
42 34 31 24 21 22 29 11 5 7 21 9 16 15 15 12 21 26 33 34 27 25 22 15 34 24 11 5 8 4 7 14 19 22 22 21 28 32 43 39 39 22 14 20
41 33 28 22 23 27 39 38 35 26 17 13 9 12 22 31 22 28 29 15 19 16 22 24 20 21 15 8 20 6 11 16 8 19 11 16 23 25 30 25 13 16 27 34
35 30 22 26 29 21 19 11 15 39 22 10 14 9 13 11 27 24 22 23 9 16 13 18 4 18 8 7 9 11 10 11 13 4 16 19 23 26 29 29 27 26 33 36
29 15 7 9 12 13 11 8 15 21 19 18 15 34 24 31 18 7 20 16 11 6 13 14 13 18 24 15 15 13 10 13 17 16 22 27 25 28 32 31 29 25 24 33
14 10 11 16 8 4 10 12 14 14 10 19 20 39 29 39 17 14 11 6 8 7 9 8 8 8 15 17 17 14 13 15 19 16 16 19 18 21 24 26 25 24 22 23
13 15 14 11 13 15 11 9 12 16 11 25 24 29 29 26 12 8 9 12 7 8 9 8 7 10 28 22 18 14 11 14 19 20 19 20 22 21 19 19 19 19 21 25
35 12 8 12 17 15 11 14 10 9 19 34 25 10 17 23 16 11 7 9 11 12 6 10 7 31 29 25 21 16 13 15 17 19 21 23 28 28 27 23 19 15 12 17
12 11 11 12 12 13 16 21 24 32 16 26 33 12 5 12 10 10 9 8 8 7 11 3 15 27 30 28 24 20 17 18 18 21 23 27 28 32 35 33 25 17 14 12
16 15 12 18 29 38 45 26 36 51 10 24 44 6 16 7 6 9 10 5 8 6 5 13 32 32 30 33 28 27 23 19 17 15 17 22 24 26 31 32 35 28 20 16
13 17 16 24 20 25 29 35 30 38 41 30 12 4 8 12 8 11 9 6 4 5 10 32 36 32 30 31 29 28 26 22 20 19 19 19 20 22 23 24 28 30 28 27
13 20 37 46 44 33 36 34 21 22 23 6 7 7 7 7 7 7 6 3 7 11 28 42 37 35 33 32 30 29 26 24 20 18 17 18 17 16 16 22 20 23 27 28
Wind_Direction_850mb
350 351 353 354 353 355 2 349 335 345 350 350 342 342 334 310 314 317 320 311 312 319 323 319 321 297 232 269 318 291 231 286 270 262 242 283 205 262 243 252 277 270 287 279
348 350 352 354 0 356 350 326 313 351 342 344 341 335 326 331 324 325 332 320 321 307 308 310 292 286 274 289 239 269 336 243 271 256 219 217 258 212 247 268 275 274 281 271
347 348 350 352 359 357 350 315 321 337 334 358 346 327 318 324 337 340 327 314 303 312 327 317 308 301 292 247 246 236 260 259 258 267 286 304 279 262 246 233 247 257 255 266
346 347 347 353 354 6 360 352 344 351 314 327 320 307 318 326 331 333 319 318 314 324 315 321 295 311 332 251 242 223 221 263 261 267 271 277 236 247 250 255 259 241 260 254
337 345 347 352 359 3 359 357 332 321 302 314 304 326 342 324 318 323 322 316 312 313 305 326 325 318 321 256 175 186 196 266 258 265 269 278 275 267 247 233 246 252 250 257
326 335 342 346 351 2 346 339 325 304 294 315 322 337 318 321 323 320 310 308 301 306 324 320 308 291 281 241 242 203 211 226 225 253 254 274 257 246 230 235 235 232 242 246
314 319 328 333 339 345 342 321 324 315 300 309 318 312 328 321 316 298 303 319 306 326 318 303 304 295 246 237 242 222 233 221 202 278 192 234 336 206 273 220 231 231 244 245
301 305 312 319 324 330 333 323 318 311 294 303 306 325 316 317 311 323 312 324 324 332 306 299 319 322 267 274 229 242 243 279 266 259 228 294 314 2 328 212 229 231 227 238
294 295 301 306 311 314 323 311 288 292 295 263 323 317 309 309 322 308 321 319 338 315 303 324 322 323 320 341 325 350 336 219 170 285 264 325 25 328 322 174 259 360 302 225
297 294 292 296 301 306 307 292 289 287 280 284 307 300 306 300 306 297 307 341 314 331 325 331 0 320 336 349 326 332 326 347 321 326 302 261 359 338 324 210 348 326 331 310
295 293 291 290 293 293 292 284 272 268 276 289 273 286 288 286 280 284 317 321 15 327 341 336 358 315 348 305 325 328 334 330 358 320 318 335 0 346 12 314 315 305 305 288
291 291 292 290 289 290 278 281 262 267 257 272 290 291 265 251 260 264 272 287 301 339 325 347 331 315 344 315 305 348 348 6 298 248 276 358 332 335 324 323 305 294 280 284
291 288 291 292 293 292 276 273 269 272 285 306 274 290 307 261 252 233 250 267 311 26 11 346 299 287 291 306 326 311 318 274 290 335 41 345 312 352 336 332 327 339 320 136
300 295 293 287 285 279 257 255 266 260 277 276 292 285 279 265 257 234 237 250 272 291 288 283 259 288 290 287 311 307 284 308 343 278 350 330 224 322 321 333 356 2 335 54
298 294 293 290 285 269 253 260 255 252 244 296 298 306 313 286 246 237 236 241 249 266 279 242 269 290 309 297 282 275 262 358 309 279 316 311 302 330 338 344 349 9 71 67
300 296 294 287 277 263 264 293 261 234 250 286 297 301 292 252 228 213 221 234 237 242 260 283 262 252 274 295 287 290 266 232 247 276 302 315 333 337 354 352 5 19 31 68
315 296 289 283 270 251 225 241 169 232 207 264 286 280 238 220 207 227 233 237 225 221 249 230 256 250 203 255 265 294 334 322 305 297 314 329 347 334 351 5 1 18 63 104
312 300 287 282 277 270 263 259 257 217 218 242 266 272 276 211 224 218 223 222 222 216 241 259 259 171 220 228 234 219 359 339 347 4 4 345 343 357 17 33 15 57 97 105
304 298 289 283 270 253 265 267 211 218 213 260 238 260 296 167 238 258 189 213 217 227 230 241 303 240 203 281 16 52 28 22 341 5 13 9 5 1 24 43 66 65 100 110
291 259 267 265 223 234 270 219 185 207 217 234 256 249 243 281 310 275 262 216 210 235 220 166 208 238 110 110 92 89 60 43 30 18 4 3 12 5 13 33 52 65 91 127
253 236 231 247 233 230 231 225 194 191 240 223 240 234 247 244 246 260 278 272 210 242 177 218 241 141 125 123 106 94 81 66 61 62 40 17 14 16 17 32 56 72 101 126
232 258 262 242 221 209 232 220 208 202 246 194 220 216 205 236 224 246 224 247 256 243 180 227 254 105 130 131 118 101 77 81 78 68 57 43 39 30 32 34 49 67 90 125
257 262 239 232 214 220 220 213 217 222 220 266 238 180 189 213 209 265 249 240 238 331 247 241 79 137 131 132 125 107 91 90 83 84 74 59 54 53 49 46 50 57 87 108
232 223 233 232 208 222 210 246 270 286 277 291 275 211 197 231 193 241 235 232 235 245 229 219 134 138 135 134 129 117 107 98 86 80 77 70 63 58 57 56 62 68 84 99
226 228 232 224 247 276 272 286 310 285 184 261 265 202 207 225 266 258 234 231 248 253 64 111 128 140 139 135 130 127 123 112 101 97 92 76 64 61 59 53 58 64 73 85
232 242 242 254 270 262 272 306 312 315 338 308 291 234 247 224 227 226 211 259 289 68 118 136 140 143 143 142 141 150 135 120 112 100 92 88 84 80 78 73 72 72 75 88
227 228 235 252 286 292 289 294 299 294 293 307 288 271 247 300 235 227 212 231 91 71 153 143 145 146 147 146 141 138 136 130 120 110 102 97 95 95 82 88 95 104 102 101